• In Österreich
  • Länderverzeichnis
  • Für 7 Tage
  • Wassertemperatur
  • Satellitenkarten
  • Wetterkarte
  • News
  • Widgets
  • user-avatar
    Anmelden

    Stündliche Wetter Andrychów

    Heute, 24 Mai, Donnerstag

    Zeit Temperatur Niederschläge Wind Luftdruck Luftfeuchtigkeit
    00:00 +15°C° 0 mm 2 m/S 734 mmHg 92%
    01:00 +15°C° 0 mm 2 m/S 734 mmHg 92%
    02:00 +14°C° 0 mm 2 m/S 734 mmHg 92%
    03:00 +14°C° 0 mm 2 m/S 734 mmHg 92%
    04:00 +14°C° 0 mm 2 m/S 734 mmHg 91%
    05:00 +14°C° 0 mm 3 m/S 734 mmHg 88%
    06:00 +14°C° 0 mm 3 m/S 734 mmHg 86%
    07:00 +16°C° 0 mm 3 m/S 734 mmHg 83%
    08:00 +18°C° 0 mm 3 m/S 734 mmHg 79%
    09:00 +19°C° 0 mm 4 m/S 734 mmHg 74%
    10:00 +21°C° 0 mm 4 m/S 735 mmHg 70%
    11:00 +21°C° 0 mm 4 m/S 734 mmHg 66%
    12:00 +22°C° 0 mm 4 m/S 734 mmHg 62%
    13:00 +23°C° 0 mm 4 m/S 734 mmHg 58%
    14:00 +23°C° 0 mm 5 m/S 734 mmHg 58%
    15:00 +23°C° 0 mm 5 m/S 733 mmHg 58%
    16:00 +23°C° 0 mm 5 m/S 733 mmHg 59%
    17:00 +21°C° 0 mm 4 m/S 733 mmHg 64%
    18:00 +20°C° 0 mm 4 m/S 733 mmHg 69%
    19:00 +19°C° 0 mm 3 m/S 733 mmHg 75%
    20:00 +17°C° 0 mm 3 m/S 733 mmHg 78%
    21:00 +16°C° 0 mm 3 m/S 733 mmHg 81%
    22:00 +15°C° 0 mm 2 m/S 733 mmHg 85%
    23:00 +15°C° 0 mm 2 m/S 733 mmHg 87%

    Morgen, 25 Mai, Freitag

    Zeit Temperatur Niederschläge Wind Luftdruck Luftfeuchtigkeit
    00:00 +14°C° 0 mm 2 m/S 733 mmHg 89%
    01:00 +13°C° 0 mm 2 m/S 733 mmHg 90%
    02:00 +13°C° 0 mm 2 m/S 733 mmHg 91%
    03:00 +13°C° 0 mm 2 m/S 733 mmHg 92%
    04:00 +12°C° 0 mm 2 m/S 733 mmHg 93%
    05:00 +14°C° 0 mm 2 m/S 733 mmHg 88%
    06:00 +16°C° 0 mm 2 m/S 733 mmHg 82%
    07:00 +17°C° 0 mm 3 m/S 733 mmHg 77%
    08:00 +19°C° 0 mm 3 m/S 733 mmHg 70%
    09:00 +20°C° 0 mm 3 m/S 733 mmHg 64%
    10:00 +22°C° 0 mm 4 m/S 733 mmHg 57%
    11:00 +22°C° 0 mm 4 m/S 733 mmHg 55%
    12:00 +23°C° 0 mm 4 m/S 733 mmHg 52%
    13:00 +25°C° 0 mm 4 m/S 733 mmHg 50%
    14:00 +23°C° 0,1 mm 4 m/S 733 mmHg 52%
    15:00 +23°C° 0,1 mm 4 m/S 733 mmHg 54%
    16:00 +23°C° 0,1 mm 4 m/S 733 mmHg 56%
    17:00 +21°C° 0,1 mm 3 m/S 733 mmHg 63%
    18:00 +20°C° 0,1 mm 3 m/S 733 mmHg 69%
    19:00 +19°C° 0,1 mm 2 m/S 733 mmHg 76%
    20:00 +17°C° 0 mm 2 m/S 733 mmHg 79%
    21:00 +16°C° 0 mm 1 m/S 733 mmHg 83%
    22:00 +15°C° 0 mm 1 m/S 733 mmHg 87%
    23:00 +15°C° 0 mm 1 m/S 733 mmHg 88%

    übermorgen, 26 Mai, Samstag

    Zeit Temperatur Niederschläge Wind Luftdruck Luftfeuchtigkeit
    00:00 +14°C° 0 mm 1 m/S 734 mmHg 90%
    01:00 +14°C° 0 mm 1 m/S 734 mmHg 91%
    02:00 +14°C° 0 mm 1 m/S 734 mmHg 91%
    03:00 +13°C° 0 mm 1 m/S 734 mmHg 92%
    04:00 +12°C° 0 mm 0 m/S 734 mmHg 92%
    05:00 +14°C° 0 mm 0 m/S 734 mmHg 86%
    06:00 +16°C° 0 mm 0 m/S 734 mmHg 81%
    07:00 +18°C° 0 mm 0 m/S 735 mmHg 75%
    08:00 +22°C° 0 mm 1 m/S 735 mmHg 69%
    09:00 +23°C° 0 mm 1 m/S 735 mmHg 63%
    10:00 +25°C° 0 mm 1 m/S 735 mmHg 57%
    11:00 +26°C° 0 mm 1 m/S 735 mmHg 54%
    12:00 +26°C° 0 mm 1 m/S 735 mmHg 52%
    13:00 +27°C° 0 mm 1 m/S 735 mmHg 50%
    14:00 +27°C° 0,2 mm 2 m/S 735 mmHg 54%
    15:00 +26°C° 0,2 mm 2 m/S 735 mmHg 58%
    16:00 +26°C° 0,2 mm 2 m/S 735 mmHg 61%
    17:00 +24°C° 0,3 mm 2 m/S 735 mmHg 68%
    18:00 +23°C° 0,3 mm 2 m/S 735 mmHg 75%
    19:00 +20°C° 0,3 mm 2 m/S 735 mmHg 81%
    20:00 +21°C° 0 mm 1 m/S 735 mmHg 84%
    21:00 +20°C° 0 mm 1 m/S 735 mmHg 86%
    22:00 +19°C° 0 mm 1 m/S 735 mmHg 88%
    23:00 +18°C° 0 mm 1 m/S 735 mmHg 89%

    27 Mai, Sonntag

    Zeit Temperatur Niederschläge Wind Luftdruck Luftfeuchtigkeit
    00:00 +18°C° 0 mm 1 m/S 735 mmHg 90%
    01:00 +16°C° 0 mm 1 m/S 735 mmHg 91%
    02:00 +16°C° 0 mm 1 m/S 735 mmHg 92%
    03:00 +15°C° 0 mm 1 m/S 735 mmHg 92%
    04:00 +15°C° 0 mm 1 m/S 734 mmHg 92%
    05:00 +18°C° 0 mm 1 m/S 735 mmHg 87%
    06:00 +19°C° 0 mm 1 m/S 735 mmHg 83%
    07:00 +21°C° 0 mm 1 m/S 735 mmHg 78%
    08:00 +23°C° 0,3 mm 1 m/S 735 mmHg 73%
    09:00 +24°C° 0,3 mm 1 m/S 735 mmHg 67%
    10:00 +26°C° 0,3 mm 2 m/S 735 mmHg 62%
    11:00 +26°C° 0,6 mm 2 m/S 735 mmHg 61%
    12:00 +26°C° 0,6 mm 2 m/S 735 mmHg 60%
    13:00 +27°C° 0,6 mm 2 m/S 734 mmHg 59%
    14:00 +26°C° 0,7 mm 2 m/S 734 mmHg 61%
    15:00 +26°C° 0,7 mm 2 m/S 734 mmHg 63%
    16:00 +26°C° 0,7 mm 3 m/S 734 mmHg 66%
    17:00 +25°C° 0,3 mm 2 m/S 734 mmHg 71%
    18:00 +23°C° 0,3 mm 2 m/S 734 mmHg 76%
    19:00 +21°C° 0,3 mm 2 m/S 734 mmHg 81%
    20:00 +20°C° 0,1 mm 2 m/S 734 mmHg 83%
    21:00 +19°C° 0,1 mm 2 m/S 734 mmHg 86%
    22:00 +18°C° 0,1 mm 2 m/S 734 mmHg 89%
    23:00 +17°C° 0,2 mm 2 m/S 734 mmHg 90%

    28 Mai, Montag

    Zeit Temperatur Niederschläge Wind Luftdruck Luftfeuchtigkeit
    00:00 +17°C° 0,2 mm 2 m/S 734 mmHg 90%
    01:00 +16°C° 0,2 mm 2 m/S 734 mmHg 91%
    02:00 +16°C° 0 mm 2 m/S 734 mmHg 92%
    03:00 +16°C° 0 mm 2 m/S 734 mmHg 92%
    04:00 +15°C° 0 mm 2 m/S 734 mmHg 92%
    05:00 +17°C° 0 mm 2 m/S 734 mmHg 88%
    06:00 +18°C° 0 mm 2 m/S 735 mmHg 83%
    07:00 +20°C° 0 mm 2 m/S 735 mmHg 78%
    08:00 +21°C° 0,2 mm 2 m/S 735 mmHg 73%
    09:00 +24°C° 0,2 mm 2 m/S 735 mmHg 69%
    10:00 +25°C° 0,2 mm 3 m/S 735 mmHg 64%
    11:00 +26°C° 0,7 mm 3 m/S 735 mmHg 63%
    12:00 +26°C° 0,7 mm 3 m/S 735 mmHg 62%
    13:00 +27°C° 0,7 mm 4 m/S 735 mmHg 62%
    14:00 +27°C° 0,6 mm 4 m/S 735 mmHg 63%
    15:00 +26°C° 0,6 mm 4 m/S 735 mmHg 65%
    16:00 +26°C° 0,6 mm 4 m/S 735 mmHg 66%
    17:00 +23°C° 0,1 mm 4 m/S 734 mmHg 71%
    18:00 +22°C° 0,1 mm 3 m/S 734 mmHg 75%
    19:00 +21°C° 0,1 mm 3 m/S 734 mmHg 79%
    20:00 +19°C° 0 mm 3 m/S 735 mmHg 82%
    21:00 +18°C° 0 mm 3 m/S 735 mmHg 84%
    22:00 +17°C° 0 mm 3 m/S 735 mmHg 86%
    23:00 +17°C° 0 mm 3 m/S 735 mmHg 87%

    29 Mai, Dienstag

    Zeit Temperatur Niederschläge Wind Luftdruck Luftfeuchtigkeit
    00:00 +16°C° 0 mm 2 m/S 735 mmHg 88%
    01:00 +16°C° 0 mm 2 m/S 735 mmHg 90%
    02:00 +15°C° 0 mm 2 m/S 735 mmHg 90%
    03:00 +15°C° 0 mm 2 m/S 734 mmHg 91%
    04:00 +15°C° 0 mm 2 m/S 734 mmHg 91%
    05:00 +16°C° 0 mm 2 m/S 735 mmHg 86%
    06:00 +18°C° 0 mm 2 m/S 735 mmHg 80%
    07:00 +20°C° 0 mm 2 m/S 735 mmHg 75%
    08:00 +23°C° 0 mm 2 m/S 735 mmHg 68%
    09:00 +25°C° 0 mm 2 m/S 735 mmHg 60%
    10:00 +27°C° 0 mm 2 m/S 735 mmHg 53%
    11:00 +27°C° 0 mm 2 m/S 735 mmHg 52%
    12:00 +28°C° 0 mm 2 m/S 735 mmHg 50%
    13:00 +28°C° 0 mm 2 m/S 735 mmHg 49%
    14:00 +28°C° 0 mm 2 m/S 734 mmHg 51%
    15:00 +27°C° 0 mm 2 m/S 734 mmHg 53%
    16:00 +27°C° 0 mm 3 m/S 734 mmHg 55%
    17:00 +26°C° 0 mm 3 m/S 734 mmHg 60%
    18:00 +24°C° 0 mm 3 m/S 734 mmHg 66%
    19:00 +22°C° 0 mm 3 m/S 733 mmHg 72%
    20:00 +20°C° 0 mm 2 m/S 733 mmHg 76%
    21:00 +19°C° 0 mm 2 m/S 733 mmHg 80%
    22:00 +18°C° 0 mm 2 m/S 733 mmHg 83%
    23:00 +17°C° 0 mm 2 m/S 733 mmHg 85%
    Mehr zeigen